Regional Weather Roundup
Issued by NWS

Home | Current Version | Previous Version | Graphics & Text | Print | Product List | Glossary On
Versions: 1 2 3 4 5 6 7 8 9 10 11 12 13 14 15 16 17 18 19 20 21 22 23 24 25 26 27 28 29 30 31 32 33 34 35 36 37 38 39 40 41 42 43 44 45 46 47 48 49 50
000
ASUS43 KIND 291009
RWRIN

WEATHER ROUNDUP FOR INDIANA
NATIONAL WEATHER SERVICE INDIANAPOLIS IN
500 AM EST MON DEC 29 2014

NOTE: "FAIR" INDICATES FEW OR NO CLOUDS BELOW 12,000 FEET WITH NO
SIGNIFICANT WEATHER AND/OR OBSTRUCTIONS TO VISIBILITY.

* - STATION DOES NOT REPORT WEATHER SUCH AS PRECIPITATION OR FOG.

+ - STATION NOT QUALITY CONTROLLED BY THE NATIONAL WEATHER SERVICE.
    USE DATA WITH CAUTION...ESPECIALLY DEWPOINT AND RELATIVE
    HUMIDITY OBSERVATIONS.

INZ001>003-010>013-019-020-291100-
NORTHWEST INDIANA

CITY           SKY/WX    TMP DP  RH WIND       PRES   REMARKS
KNOX *+        CLEAR     20  15  83 CALM      30.24F
LA PORTE +     MOCLDY    24  22  91 CALM      30.25F
MICHIGAN CITY+ CLOUDY    27  21  80 CALM      30.26S
MONTICELLO +   CLEAR     20  20  96 CALM      30.25S FOG
RENSSELAER +   PTCLDY    23  23 100 CALM      30.25F
VALPARAISO     PTCLDY    22  17  81 NW3       30.25F

$$

LMZ046-743>745-291100-
SOUTHERN LAKE MICHIGAN

STATION/POSITION TIME  TEMP WIND        PRES
                       AIR  DIR/SP/G
                 (UTC) (F)  (DEG/KT/KT) (MB)
MICHIGAN CITY    1000   34  350/ 11/ 13   N/A

$$

INZ004-005-014>016-021>024-291100-
NORTH CENTRAL INDIANA

CITY           SKY/WX    TMP DP  RH WIND       PRES   REMARKS
GOSHEN         CLOUDY    24  21  88 CALM      30.24S
LOGANSPORT +   CLEAR     21  19  93 CALM      30.26S FOG
PERU/GRISSOM   FOG       21  21 100 SW3       30.24S VSB 1/2
ROCHESTER +    CLEAR     23  23 100 CALM      30.25F FOG
SOUTH BEND     CLOUDY    25  20  81 CALM      30.25S
WARSAW +       CLEAR     19  18  93 CALM      30.24S FOG

$$

INZ006>009-017-018-025>027-291100-
NORTHEAST INDIANA

CITY           SKY/WX    TMP DP  RH WIND       PRES   REMARKS
ANGOLA *+      CLEAR     19  18  93 CALM      30.23S
AUBURN +       CLEAR     21  19  93 CALM      30.25S FOG
FORT WAYNE     PTCLDY    22  21  96 CALM      30.25F
HUNTINGTON +   CLEAR     20  16  84 CALM      30.24F

$$

INZ028-029-035-036-043>045-051>053-291100-
WEST CENTRAL INDIANA

CITY           SKY/WX    TMP DP  RH WIND       PRES   REMARKS
GREENCASTLE +  CLEAR     21  18  86 N5        30.25S WCI  15
LAFAYETTE      CLEAR     17  15  92 CALM      30.26S FOG
TERRE HAUTE    CLEAR     22  20  92 NE3       30.26S

$$

INZ030>032-037>040-046>048-054>057-064-065-291100-
CENTRAL INDIANA

CITY           SKY/WX    TMP DP  RH WIND       PRES   REMARKS
CP ATTERBURY + CLEAR     23  21  93 MISG      30.25S FOG
FRANKFORT +    CLEAR     22  22 100 CALM      30.26S FOG
INDIANAPOLIS   CLEAR     21  19  92 N5        30.23S WCI  15
-EAGLE CREEK   CLEAR     20  18  92 N3        30.24S
KOKOMO *+      CLEAR     21  18  86 CALM      30.25S
MARION +       CLEAR     22  22  97 CALM      30.25S FOG
MT COMFORT *+  CLEAR     21 N/A N/A N5        30.24S WCI  15
SHELBYVILLE    CLEAR     25  21  85 N5        30.23S WCI  19
ZIONSVILLE +   CLEAR     23  20  89 CALM      30.25R FOG

$$

INZ033-034-041-042-049-050-058-059-291100-
EAST CENTRAL INDIANA

CITY           SKY/WX    TMP DP  RH WIND       PRES   REMARKS
MUNCIE         CLEAR     23  20  88 CALM      30.24S FOG

$$

INZ060-061-067>069-081>083-085>088-291100-
SOUTHWEST INDIANA

CITY           SKY/WX    TMP DP  RH WIND       PRES   REMARKS
EVANSVILLE     CLOUDY    32  26  78 N6        30.24S WCI  26
HUNTINGBURG *+ CLOUDY    32  27  80 N6        30.23R WCI  26
WASHINGTON +   CLOUDY    26  23  87 N5        30.25R WCI  20

$$

INZ062-063-066-070>080-084-089>092-291100-
SOUTH CENTRAL AND SOUTHEAST INDIANA

CITY           SKY/WX    TMP DP  RH WIND       PRES   REMARKS
BLOOMINGTON    CLEAR     22  19  89 CALM      30.23S
SEYMOUR +      CLOUDY    30  27  86 N7        30.23  WCI  23

$$



USA.gov is the U.S. government's official web portal to all federal, state and local government web resources and services.